This demonstration page uses our WeatherBlox Daily Observations layout. Learn more.

Left ArrowRight Arrow

53.62937, 11.41316

Hourly Observations for April 19, 2021

Temp ( °F °C ) Dew Point ( °F °C ) Humidity (%) Winds ( mph kmh ) Pressure ( in mb ) Visibility ( mi km ) Precip ( " mm )
5:50 am 05:50 Mostly Cloudy with Fog 43 6 43 6 100 100 ENE 7 11 30.18 1022 0 1 N/A
6:20 am 06:20 Mostly Cloudy with Fog 43 6 41 5 93 93 E 6 9 30.18 1022 0 1 N/A
6:50 am 06:50 Mostly Cloudy with Fog 43 6 41 5 93 93 ENE 6 9 30.18 1022 0 0 N/A
7:20 am 07:20 Mostly Cloudy with Fog 41 5 41 5 100 100 E 3 6 30.18 1022 0 0 N/A
7:50 am 07:50 Mostly Cloudy with Fog 41 5 41 5 100 100 VRB 5 7 30.18 1022 0 0 N/A
8:20 am 08:20 Mostly Cloudy with Fog 41 5 41 5 100 100 NE 5 7 30.18 1022 0 0 N/A
8:50 am 08:50 Mostly Cloudy with Fog 41 5 41 5 100 100 NE 5 7 30.18 1022 0 1 N/A
9:20 am 09:20 Mostly Cloudy with Fog 41 5 41 5 100 100 NE 5 7 30.21 1023 0 1 N/A
9:50 am 09:50 Mostly Cloudy with Fog 43 6 43 6 100 100 NNE 3 6 30.18 1022 0 0 N/A
10:20 am 10:20 Mostly Cloudy with Fog 45 7 43 6 93 93 NNE 5 7 30.18 1022 1 1 N/A
10:50 am 10:50 Mostly Cloudy with Mist and Fog 45 7 45 7 100 100 NNE 6 9 30.18 1022 1 2 N/A
11:20 am 11:20 Mostly Cloudy 45 7 45 7 100 100 NNE 6 9 30.18 1022 5 8 N/A
11:50 am 11:50 Mostly Cloudy 50 10 50 10 100 100 ENE 1 2 30.18 1022 4 7 N/A
12:20 pm 12:20 Partly Cloudy 50 10 46 8 88 88 VRB 5 7 30.18 1022 30 48 N/A
12:50 pm 12:50 Mostly Sunny 54 12 46 8 77 77 NE 6 9 30.18 1022 7 11 N/A
1:20 pm 13:20 Mostly Sunny 55 13 45 7 67 67 NE 8 13 30.18 1022 7 11 N/A
1:50 pm 13:50 Mostly Sunny 55 13 43 6 63 63 NE 10 17 30.18 1022 7 11 N/A
2:20 pm 14:20 Mostly Sunny 55 13 43 6 63 63 NNE 10 17 30.15 1021 7 11 N/A
2:50 pm 14:50 Mostly Sunny 57 14 39 4 51 51 NNE 12 19 30.15 1021 7 11 N/A
3:20 pm 15:20 Mostly Sunny 55 13 36 2 47 47 NNE 13 20 30.15 1021 7 11 N/A
3:50 pm 15:50 Mostly Sunny 55 13 37 3 51 51 NNE 15 24 30.15 1021 7 11 N/A
4:20 pm 16:20 Mostly Sunny 54 12 37 3 54 54 NE 14 22 30.15 1021 7 11 N/A
4:50 pm 16:50 Mostly Sunny 54 12 36 2 51 51 NE 13 20 30.15 1021 7 11 N/A
5:20 pm 17:20 Mostly Sunny 54 12 34 1 47 47 NNE 9 15 30.15 1021 7 11 N/A
5:50 pm 17:50 Mostly Sunny 52 11 34 1 50 50 NNE 12 19 30.15 1021 7 11 N/A
6:20 pm 18:20 Mostly Sunny 52 11 36 2 54 54 NE 10 17 30.15 1021 7 11 N/A
6:50 pm 18:50 Mostly Sunny 52 11 34 1 50 50 NE 8 13 30.12 1020 7 11 N/A
7:20 pm 19:20 Mostly Sunny 52 11 34 1 50 50 NNE 7 11 30.12 1020 7 11 N/A
7:50 pm 19:50 Mostly Sunny 50 10 34 1 54 54 NNE 8 13 30.12 1020 7 11 N/A
8:20 pm 20:20 Mostly Sunny 46 8 36 2 66 66 NNE 9 15 30.12 1020 7 11 N/A
8:50 pm 20:50 Mostly Clear 45 7 37 3 76 76 NNE 8 13 30.12 1020 7 11 N/A
9:20 pm 21:20 Mostly Clear 45 7 37 3 76 76 NNE 7 11 30.12 1020 7 11 N/A
9:50 pm 21:50 Mostly Clear 43 6 36 2 76 76 NE 6 9 30.12 1020 7 11 N/A

Powered by AerisWeather